Date String (YYYY-MM-DD hh:mm:ss) UTC,Instrument flags,absolute air pressure of the measurement (hPa),sample flow rate (lpm),inlet stack bypass flow (lpm),air temperature of the measurement (°C),ambient temperature measured by the external sensor (°C),aerosol sample conditioner tube jacket temperature (°C),OPC LED temperature (°C),internal box temperature (°C),relative humidity of the measurement (%),span deviation,mass concentration of particles derived from Lorenz-Mie calculation of OPC scattering (μg/m³),mass concentration of particles derived from Lorenz-Mie calculation of OPC scattering (μg/m³),mass concentration of particles derived from Lorenz-Mie calculation of OPC scattering (μg/m³)
DateTimeUTC,F1_M11,P_M11,Q1_M11,Q2_M11,T1_M11,T2_M11,T3_M11,T4_M11,T5_M11,U1_M11,ZSPAN_M11,X0_M11,X2_M11,X1_M11
2024-05-20 11:00:00,SystemResetWarning,0828.4,5.01,000.00,025.9,025.3,000.0,034.2,027.7,023.7,0000.0,0015.76,0004.63,0003.15
2024-05-20 11:01:00,SystemResetWarning,0828.3,4.99,000.00,026.0,025.3,000.0,034.2,027.8,023.7,0000.0,0016.42,0004.61,0003.15
2024-05-20 11:02:00,SystemResetWarning,0828.3,4.99,000.00,026.0,025.3,000.0,034.2,027.8,023.7,0000.0,0018.24,0004.61,0003.14
2024-05-20 11:03:00,SystemResetWarning,0828.3,4.99,000.00,026.0,025.3,000.0,034.2,027.8,023.7,0000.0,0020.21,0004.66,0003.14
2024-05-20 11:04:00,SystemResetWarning,0828.3,5.00,000.00,026.0,025.3,000.0,034.2,027.8,023.6,0000.0,0019.65,0004.68,0003.15
2024-05-20 11:05:00,SystemResetWarning,0828.3,5.00,000.00,026.0,025.3,000.0,034.2,027.8,023.5,0000.0,0020.11,0004.76,0003.16
2024-05-20 11:06:00,SystemResetWarning,0828.3,5.00,000.00,026.0,025.3,000.0,034.2,027.8,023.5,0000.0,0021.28,0004.79,0003.16
2024-05-20 11:07:00,SystemResetWarning,0828.3,5.01,000.00,026.0,025.4,000.0,034.2,027.8,023.5,0000.0,0021.34,0004.81,0003.16
2024-05-20 11:08:00,SystemResetWarning,0828.3,5.00,000.00,026.0,025.4,000.0,034.3,027.9,023.4,0000.0,0020.84,0004.83,0003.16
2024-05-20 11:09:00,SystemResetWarning,0828.3,5.00,000.00,026.0,025.4,000.0,034.3,027.9,023.3,0000.0,0020.68,0004.78,0003.17
2024-05-20 11:10:00,SystemResetWarning,0828.3,5.00,000.00,026.0,025.4,000.0,034.3,027.8,023.3,0000.0,0019.28,0004.74,0003.15
2024-05-20 11:11:00,SystemResetWarning,0828.4,4.98,000.00,026.0,025.4,000.0,034.3,027.8,023.2,0000.0,0018.58,0004.67,0003.15
2024-05-20 11:12:00,SystemResetWarning,0828.3,5.00,000.00,026.0,025.4,000.0,034.3,027.9,023.2,0000.0,0018.16,0004.69,0003.16
2024-05-20 11:13:00,SystemResetWarning,0828.3,5.02,000.00,026.0,025.4,000.0,034.3,027.9,023.2,0000.0,0016.51,0004.72,0003.17
2024-05-20 11:14:00,SystemResetWarning,0828.3,5.01,000.00,026.1,025.4,000.0,034.3,027.9,023.3,0000.0,0014.50,0004.72,0003.19
2024-05-20 11:15:00,SystemResetWarning,0828.4,4.99,000.00,026.1,025.4,000.0,034.3,027.9,023.4,0000.0,0014.33,0004.69,0003.19
2024-05-20 11:16:00,SystemResetWarning,0828.4,4.99,000.00,026.1,025.4,000.0,034.3,027.9,023.3,0000.0,0013.66,0004.59,0003.18
2024-05-20 11:17:00,SystemResetWarning,0828.3,4.99,000.00,026.1,025.4,000.0,034.3,027.9,023.3,0000.0,0012.89,0004.55,0003.18
2024-05-20 11:18:00,SystemResetWarning,0828.4,5.00,000.00,026.1,025.4,000.0,034.3,027.9,023.3,0000.0,0013.34,0004.55,0003.19
2024-05-20 11:19:00,SystemResetWarning,0828.3,5.01,000.00,026.1,025.4,000.0,034.3,027.9,023.4,0000.0,0013.15,0004.54,0003.20
2024-05-20 11:20:00,SystemResetWarning,0828.3,5.00,000.00,026.1,025.4,000.0,034.3,027.9,023.4,0000.0,0013.27,0004.56,0003.20
2024-05-20 11:21:00,SystemResetWarning,0828.3,5.01,000.00,026.1,025.4,000.0,034.3,027.9,023.4,0000.0,0013.35,0004.54,0003.21
2024-05-20 11:22:00,SystemResetWarning,0828.3,5.00,000.00,026.1,025.4,000.0,034.3,027.9,023.4,0000.0,0013.38,0004.54,0003.22
2024-05-20 11:23:00,SystemResetWarning,0828.2,5.00,000.00,026.1,025.4,000.0,034.3,027.9,023.4,0000.0,0014.30,0004.60,0003.22
2024-05-20 11:24:00,SystemResetWarning,0828.1,4.98,000.00,026.1,024.8,000.0,034.4,027.5,023.4,0000.0,0014.83,0004.59,0003.22
2024-05-20 11:25:00,SystemResetWarning,0828.0,5.00,000.00,025.6,022.4,000.0,034.4,026.2,024.0,0000.0,0014.87,0004.53,0003.21
2024-05-20 11:26:00,SystemResetWarning,0827.9,5.01,000.00,025.2,021.6,000.0,034.3,025.6,024.6,0000.0,0015.73,0004.53,0003.20
2024-05-20 11:27:00,SystemResetWarning,0827.8,5.01,000.00,025.0,021.9,000.0,034.2,025.6,025.0,0000.0,0016.60,0004.55,0003.21
2024-05-20 11:28:00,SystemResetWarning,0827.9,5.00,000.00,024.9,022.3,000.0,034.0,026.0,025.1,0000.0,0016.39,0004.57,0003.21
2024-05-20 11:29:00,SystemResetWarning,0827.9,5.00,000.00,024.9,022.7,000.0,033.8,026.2,025.2,0000.0,0014.90,0004.57,0003.21
2024-05-20 11:30:00,SystemResetWarning,0828.0,4.99,000.00,024.9,023.0,000.0,033.7,026.4,025.1,0000.0,0014.72,0004.56,0003.21
2024-05-20 11:31:00,SystemResetWarning,0828.0,5.00,000.00,024.9,023.3,000.0,033.7,026.5,025.0,0000.0,0014.56,0004.57,0003.21
2024-05-20 11:32:00,SystemResetWarning,0828.0,5.00,000.00,025.0,023.5,000.0,033.6,026.6,024.8,0000.0,0014.50,0004.57,0003.20
2024-05-20 11:33:00,SystemResetWarning,0828.1,5.00,000.00,025.0,023.7,000.0,033.6,026.7,024.6,0000.0,0014.30,0004.51,0003.18
2024-05-20 11:34:00,SystemResetWarning,0828.1,4.99,000.00,025.0,023.9,000.0,033.5,026.7,024.4,0000.0,0013.79,0004.49,0003.19
2024-05-20 11:35:00,SystemResetWarning,0828.0,4.99,000.00,025.0,024.0,000.0,033.5,026.7,024.2,0000.0,0014.01,0004.42,0003.17
2024-05-20 11:36:00,SystemResetWarning,0828.1,5.01,000.00,025.0,024.1,000.0,033.5,026.8,024.1,0000.0,0014.86,0004.45,0003.17
2024-05-20 11:37:00,SystemResetWarning,0828.1,5.01,000.00,025.1,024.2,000.0,033.5,026.8,024.1,0000.0,0014.56,0004.43,0003.16
2024-05-20 11:38:00,SystemResetWarning,0828.1,5.00,000.00,025.1,024.3,000.0,033.4,026.8,023.8,0000.0,0014.27,0004.41,0003.15
2024-05-20 11:39:00,SystemResetWarning,0828.1,5.00,000.00,025.1,024.4,000.0,033.5,026.9,023.7,0000.0,0014.81,0004.37,0003.14
2024-05-20 11:40:00,SystemResetWarning,0828.1,4.99,000.00,025.1,024.4,000.0,033.5,026.9,023.6,0000.0,0015.33,0004.29,0003.13
2024-05-20 11:41:00,SystemResetWarning,0828.1,4.99,000.00,025.2,024.5,000.0,033.5,027.0,023.5,0000.0,0016.00,0004.29,0003.11
2024-05-20 11:42:00,SystemResetWarning,0828.2,5.00,000.00,025.2,024.5,000.0,033.5,027.0,023.5,0000.0,0015.41,0004.24,0003.10
2024-05-20 11:43:00,SystemResetWarning,0828.2,5.01,000.00,025.2,024.6,000.0,033.5,027.0,023.5,0000.0,0015.25,0004.22,0003.10
2024-05-20 11:44:00,SystemResetWarning,0828.2,5.01,000.00,025.3,024.6,000.0,033.5,027.1,023.4,0000.0,0015.62,0004.29,0003.11
2024-05-20 11:45:00,SystemResetWarning,0828.2,5.00,000.00,025.3,024.7,000.0,033.5,027.1,023.3,0000.0,0016.12,0004.21,0003.09
2024-05-20 11:46:00,SystemResetWarning,0828.2,4.99,000.00,025.3,024.7,000.0,033.5,027.1,023.2,0000.0,0015.81,0004.18,0003.09
2024-05-20 11:47:00,SystemResetWarning,0828.1,5.00,000.00,025.3,024.7,000.0,033.5,027.2,023.1,0000.0,0015.07,0004.14,0003.08
2024-05-20 11:48:00,SystemResetWarning,0828.2,5.01,000.00,025.3,024.7,000.0,033.5,027.1,023.1,0000.0,0015.00,0004.12,0003.07
2024-05-20 11:49:00,SystemResetWarning,0828.2,5.01,000.00,025.4,024.8,000.0,033.6,027.2,023.2,0000.0,0014.22,0004.12,0003.07
2024-05-20 11:50:00,SystemResetWarning,0828.2,5.01,000.00,025.4,024.8,000.0,033.6,027.2,023.1,0000.0,0013.46,0004.11,0003.06
2024-05-20 11:51:00,SystemResetWarning,0828.2,5.00,000.00,025.4,024.8,000.0,033.6,027.2,023.1,0000.0,0013.06,0004.10,0003.05
2024-05-20 11:52:00,SystemResetWarning,0828.2,4.99,000.00,025.4,024.8,000.0,033.6,027.3,023.0,0000.0,0012.31,0004.06,0003.03
2024-05-20 11:53:00,SystemResetWarning,0828.3,4.99,000.00,025.4,024.9,000.0,033.6,027.2,022.8,0000.0,0012.12,0004.05,0003.02
2024-05-20 11:54:00,SystemResetWarning,0828.3,5.00,000.00,025.5,024.9,000.0,033.6,027.3,022.8,0000.0,0012.38,0004.04,0003.01
2024-05-20 11:55:00,SystemResetWarning,0828.3,5.01,000.00,025.5,024.9,000.0,033.7,027.3,022.9,0000.0,0012.42,0003.98,0003.01
2024-05-20 11:56:00,SystemResetWarning,0828.2,5.01,000.00,025.5,024.9,000.0,033.7,027.3,022.9,0000.0,0011.67,0003.98,0003.01
2024-05-20 11:57:00,SystemResetWarning,0828.2,5.00,000.00,025.5,024.9,000.0,033.7,027.4,022.8,0000.0,0011.23,0003.97,0003.00
2024-05-20 11:58:00,SystemResetWarning,0828.2,5.00,000.00,025.5,024.9,000.0,033.7,027.4,022.8,0000.0,0011.57,0003.99,0003.02
2024-05-20 11:59:00,SystemResetWarning,0828.3,4.99,000.00,025.6,025.0,000.0,033.7,027.4,022.8,0000.0,0011.27,0004.01,0003.01
